Flag for Canada Weather past 2 weeks in Hay River, Northwest Territories, Canada

Now
46 °F

Partly sunny.


Feels Like: 41 °F
Forecast: 30 / 53 °F
Wind: 13 mph from East

Location: Hay River

Current Time: May 25, 2015 at 10:26:28 PM

Latest Report: May 25, 2015 at 9:00 PM


Visibility: 15 mi

Pressure: 30.07 "Hg

Humidity: 50%

Dew point: 28 °F

Location of Hay RiverLocation

Historic Weather in Hay River — Graph

°F

Hay River temperature yesterday

Maximum temperature yesterday: 72 °F (at 11:00 AM)
Minimum temperature yesterday: 45 °F (at 11:00 PM)
Average temperature yesterday: 57 °F

Past Weeks' High & Low Weather Summary

 TemperatureHumidityPressure
High82 °F (May 14, 2:00 PM)100% (May 23, 5:00 AM)30.57 "Hg (May 23, 5:00 AM)
Low23 °F (May 16, 4:00 AM)15% (May 12, 1:00 PM)29.68 "Hg (May 14, 10:00 PM)
Average54 °F46%30.09 "Hg
* Reported May 10 9:00 PM — May 25 9:00 PM, Hay River, Weather by CustomWeather, © 2015

Note: Actual official high and low records may vary slightly from our data, if they occured in-between our weather recording intervals... More about our weather records

Advertising

Hay River weather history for previous 24 hours

 ConditionsComfort  
Time TempWeatherWind HumidityBarometerVisibility
9:00 PM
Mon, May 25
46 °FPartly sunny.13 mph50%30.07 "Hg15 mi
8:00 PM48 °FPartly sunny.13 mph46%30.06 "Hg15 mi
7:00 PM48 °FScattered clouds.13 mph43%30.05 "Hg15 mi
6:00 PM46 °FScattered clouds.16 mph46%30.05 "Hg15 mi
5:00 PM50 °FScattered clouds.15 mph47%30.05 "Hg15 mi
4:00 PM52 °FScattered clouds.14 mph41%30.05 "Hg15 mi
3:00 PM50 °FScattered clouds.12 mph50%30.05 "Hg15 mi
2:00 PM48 °FScattered clouds.13 mph54%30.03 "Hg15 mi
1:00 PM48 °FScattered clouds.10 mph54%30.01 "Hg15 mi
12:00 PM50 °FScattered clouds.9 mph47%29.98 "Hg15 mi
11:00 AM46 °FBroken clouds.10 mph62%29.95 "Hg15 mi
10:00 AM46 °FBroken clouds.8 mph66%29.92 "Hg15 mi
9:00 AM45 °FScattered clouds.7 mph66%29.89 "Hg15 mi
8:00 AM41 °FScattered clouds.8 mph70%29.84 "Hg15 mi
7:00 AM52 °FScattered clouds.16 mph72%29.79 "Hg15 mi
6:00 AM50 °FPassing clouds.7 mph71%29.79 "Hg15 mi
5:00 AM46 °FPassing clouds.6 mph71%29.78 "Hg15 mi
4:00 AM45 °FPassing clouds.2 mph76%29.77 "Hg15 mi
3:00 AM48 °FPassing clouds.2 mph71%29.78 "Hg15 mi
2:00 AM46 °FPartly cloudy.No wind66%29.80 "Hg15 mi
1:00 AM43 °FPassing clouds.6 mph76%29.83 "Hg15 mi
12:00 AM41 °FPartly cloudy.5 mph81%29.82 "Hg15 mi
11:00 PM
Sun, May 24
45 °FBroken clouds.2 mph71%29.81 "Hg15 mi
10:00 PM46 °FPartly sunny.3 mph66%29.81 "Hg15 mi
Weather by CustomWeather, © 2015

See weather overviewHow to use our weather pages